Starlink 1153

operational
NORAD ID: 45080 Int'l Des: 2020-006 Owner: SPXS Country: US Constellation: starlink
LEOCIRCULARSTARLINK_TYPE

About Starlink 1153

Description loading...

Live Position

Loading 3D Globe...

Upcoming Passes

Altitude History

Altitude vs Time

uPlot chart will show altitude changes over time

Two-Line Element Set

1 45080U 20006AN 25353.17086604 -.00001981 00000-0 -11414-3 0 9990
2 45080 53.0548 268.0814 0001610 88.0744 272.0430 15.06394323324601
Epoch: Dec 19, 2025 • Age: 19 hours

Current Status

Altitude 547.2 km
Velocity 7.59 km/s
Sub-Earth Point 8.25°N, 166.89°W
Launch Date Jan 29, 2020
Age 5.8 years
Type internet

Technical Details

Classification Payload
Mass 260.00 kg
Dry Mass 248.00 kg
Total Mass 260.00 kg
Length 0.20 m
Diameter 2.80 m
Span 9.00 m
Shape Box + pan
Manufacturer SPXS
Bus Type Starlink
Phase Status In Orbit
Owner/State SPXS/US

Large Constellations

Loading constellations...